Location: Prague
(50.0830°N, 14.4670°E)
Time: 10:45:21
(UTC+01:00)

NOAA 19 - Visible Passes

Search period start: 01 December 2021 00:00
Search period end: 11 December 2021 00:00
Orbit: 840 x 861 km, 99.2° (Epoch: 30 November)

Date Brightness Start Highest point End Pass type
(mag) Time Alt. Az. Time Alt. Az. Time Alt. Az.
01 Dec 7.3 06:59:53 10° NNE 07:04:49 32° E 07:09:43 10° SSE visible
01 Dec 6.5 16:52:33 10° E 16:56:12 19° NE 16:59:52 10° N visible
01 Dec 5.1 18:30:42 10° SSE 18:36:09 89° E 18:41:40 10° NNW visible
01 Dec 7.8 20:14:21 10° SW 20:17:35 16° W 20:20:49 10° NW visible
02 Dec 7.6 06:48:17 10° NE 06:52:53 26° E 06:57:28 10° SSE visible
02 Dec 6.6 16:41:28 10° E 16:44:34 16° NE 16:47:42 10° NNE visible
02 Dec 5.0 18:18:56 10° SSE 18:24:21 74° ENE 18:29:50 10° NNW visible
02 Dec 7.5 20:01:43 10° SW 20:05:36 20° W 20:09:30 10° NW visible
03 Dec 7.9 06:36:46 10° NE 06:40:56 21° E 06:45:06 10° SE visible
03 Dec 5.1 18:07:13 10° SSE 18:12:35 60° ENE 18:17:58 10° N visible
03 Dec 7.2 19:49:16 10° SW 19:53:38 24° W 19:58:02 10° NW visible
04 Dec 8.0 06:25:22 10° NE 06:28:58 17° E 06:32:33 10° SE visible
04 Dec 5.3 17:55:35 10° SE 18:00:49 49° ENE 18:06:05 10° N visible
04 Dec 6.9 19:36:58 10° SSW 19:41:42 30° W 19:46:28 10° NW visible
05 Dec 8.2 06:14:12 10° NE 06:16:59 14° E 06:19:45 10° ESE visible
05 Dec 5.5 17:44:01 10° SE 17:49:04 41° ENE 17:54:10 10° N visible
05 Dec 6.6 19:24:47 10° SSW 19:29:47 36° W 19:34:50 10° NNW visible
06 Dec 8.4 06:03:36 10° ENE 06:04:57 11° E 06:06:18 10° E visible
06 Dec 5.8 17:32:30 10° SE 17:37:21 34° ENE 17:42:14 10° N visible
06 Dec 6.2 19:12:41 10° S 19:17:53 45° W 19:23:09 10° NNW visible
07 Dec 6.0 17:21:05 10° ESE 17:25:39 28° ENE 17:30:16 10° N visible
07 Dec 5.8 19:00:40 10° S 19:06:01 56° W 19:11:25 10° NNW visible
08 Dec 6.2 17:09:43 10° ESE 17:13:58 24° ENE 17:18:15 10° N visible
08 Dec 5.4 18:48:44 10° S 18:54:10 69° WSW 18:59:40 10° NNW visible
08 Dec 8.1 20:34:14 10° WSW 20:35:51 11° W 20:37:29 10° WNW visible
09 Dec 7.1 07:05:59 10° NNE 07:11:03 35° E 07:16:06 10° SSE visible
09 Dec 6.4 16:58:27 10° E 17:02:19 20° NE 17:06:11 10° N visible
09 Dec 5.2 18:36:52 10° SSE 18:42:19 84° WSW 18:47:51 10° NNW visible
09 Dec 7.9 20:20:57 10° WSW 20:23:50 14° W 20:26:45 10° NW visible
10 Dec 7.4 06:54:21 10° NE 06:59:08 29° E 07:03:53 10° SSE visible
10 Dec 6.6 16:47:18 10° E 16:50:40 17° NE 16:54:03 10° NNE visible
10 Dec 5.0 18:25:04 10° SSE 18:30:31 80° ENE 18:36:03 10° NNW visible
10 Dec 7.6 20:08:11 10° SW 20:11:51 18° W 20:15:31 10° NW visible
